User: anonymous   Login
Location: Deer Lake
(49.1830°N, 57.4330°W)
Time: 18:47:58
(UTC-03:-30)
Language:

Cosmos 1707 - Orbit

View from above orbital plane
View from above orbital plane
View from above satellite
View from above satellite

Ground track
Ground track

The orbit data is extracted from the following two-line orbital elements,

1 16326U 85113A   16344.70390170  .00000921  00000-0  50369-4 0  9990
2 16326  82.5120  34.4467 0009510 230.2019 129.8375 15.13019067688693
Epoch (UTC): 09 December 2016 16:53:37
Eccentricity: 0.0009510
inclination: 82.5120°
perigee height: 520 km
apogee height: 533 km
right ascension of ascending node: 34.4467°
argument of perigee: 230.2019°
revolutions per day: 15.13019067
mean anomaly at epoch: 129.8375°
orbit number at epoch: 68869

The dashed part of the orbit path shows where the satellite is in the earth's shadow,  

DLR